Weather History for Pecs, Hungary

Change the Weather History Date:

Tuesday, December 11, 2012

  Actual Average Record
Temperature  
Mean Temperature 23 °F -  
Max Temperature 31 °F 37 °F - ()
Min Temperature 15 °F 28 °F - ()
Degree Days  
Heating Degree Days 42    
Moisture  
Dew Point 19 °F    
Average Humidity 76    
Maximum Humidity 86    
Minimum Humidity 57    
Precipitation  
Precipitation 0.00 in 0.06 in - ()
Sea Level Pressure  
Sea Level Pressure 29.92 in    
Wind  
Wind Speed 5 mph ()    
Max Wind Speed 17 mph    
Max Gust Speed 28 mph    
Visibility 5.8 miles    
Events Snow    
T = Trace of Precipitation, MM = Missing Value Source: Averaged Metar Reports

Daily Weather History Graph

Daily Weather History Graph

Search for Another Location

Airport:

Trip Planner

Search our weather history database for the weather conditions in past years. The results will help you decide how hot, cold, wet, or windy it might be!

Date:

Astronomy

Dec. 11, 2012 Rise Set
Actual Time 7:19 AM CET 4:01 PM CET
Civil Twilight 6:44 AM CET 4:36 PM CET
Nautical Twilight 6:06 AM CET 5:14 PM CET
Astronomical Twilight 5:30 AM CET 5:50 PM CET
Moon 4:48 AM CET (12/11) 2:28 PM CET (12/11)
Length of Visible Light 9h 51m
Length of Day
8h 42m
Waning Crescent, 5% of the Moon is Illuminated
Dec 11
Waning Crescent
Dec 13
New
Dec 20
First Quarter
Dec 28
Full
Jan 5
Last Quarter

Hourly Weather History & Observations

Time (CET) Temp. Windchill Dew Point Humidity Pressure Visibility Wind Dir Wind Speed Gust Speed Precip Events Conditions
12:45 AM 19.4 °F 14.3 °F 14.0 °F 80% 29.83 in - North 3.5 mph - N/A   Clear
1:00 AM 20 °F - 13 °F 64% 29.88 in 9 mi North 4.5 mph - -   Partly Cloudy
1:45 AM 17.6 °F - 12.2 °F 79% 29.83 in - West 2.3 mph - N/A   Clear
2:45 AM 23.0 °F 18.4 °F 15.8 °F 74% 29.83 in - North 3.5 mph - N/A   Clear
3:45 AM 17.6 °F 10.7 °F 12.2 °F 79% 29.83 in - South 4.6 mph - N/A   Clear
4:45 AM 21.2 °F - 15.8 °F 80% 29.83 in - Calm Calm - N/A   Clear
5:15 AM 21.2 °F 16.4 °F 15.8 °F 80% 29.86 in - SSE 3.5 mph - N/A   Clear
5:45 AM 21.2 °F - 15.8 °F 80% 29.86 in - NNW 1.2 mph - N/A   Clear
6:00 AM - - - N/A% - - Variable 3.5 mph - N/A   Unknown
6:15 AM 21.2 °F 14.9 °F 17.6 °F 86% 29.86 in - ESE 4.6 mph - N/A   Clear
6:45 AM 19.4 °F 14.3 °F 15.8 °F 86% 29.86 in - SE 3.5 mph - N/A   Clear
7:00 AM 20 °F - 15 °F 72% 29.92 in 9 mi SE 4.5 mph - -   Partly Cloudy
7:15 AM 21.2 °F - 15.8 °F 80% 29.89 in - Calm Calm - N/A   Clear
7:45 AM 21.2 °F - 15.8 °F 80% 29.89 in 3.7 mi East 1.2 mph - N/A   Overcast
8:15 AM 21.2 °F - 15.8 °F 80% 29.89 in 4.3 mi Calm Calm - N/A   Overcast
8:45 AM 21.2 °F - 15.8 °F 80% 29.89 in 4.3 mi Calm Calm - N/A   Overcast
9:00 AM - - - N/A% - 4.3 mi Variable 3.5 mph - N/A   Mostly Cloudy
9:15 AM 23.0 °F - 15.8 °F 74% 29.89 in - North 1.2 mph - N/A   Clear
9:45 AM 23.0 °F - 15.8 °F 74% 29.89 in - North 2.3 mph - N/A   Clear
10:15 AM 24.8 °F 19.1 °F 17.6 °F 74% 29.89 in - NW 4.6 mph - N/A   Clear
10:45 AM 24.8 °F 16.1 °F 17.6 °F 74% 29.92 in - NW 8.1 mph - N/A   Clear
11:15 AM 26.6 °F 22.6 °F 17.6 °F 69% 29.89 in - WNW 3.5 mph - N/A   Clear
11:45 AM 28.4 °F 21.2 °F 17.6 °F 64% 29.89 in - WNW 6.9 mph - N/A   Clear
12:00 PM - - - N/A% - 6.2 mi WNW 9.2 mph - N/A   Mostly Cloudy
12:15 PM 28.4 °F - 19.4 °F 69% 29.89 in - West 2.3 mph - N/A   Clear
12:45 PM 28.4 °F - 19.4 °F 69% 29.89 in - WSW 2.3 mph - N/A   Clear
1:00 PM 29 °F - 20 °F 57% 29.94 in 7 mi WSW 2.2 mph - -   Partly Cloudy
1:15 PM 28.4 °F 24.6 °F 19.4 °F 69% 29.89 in - WSW 3.5 mph - N/A   Clear
1:45 PM 28.4 °F 24.6 °F 21.2 °F 74% 29.92 in - SW 3.5 mph - N/A   Clear
2:45 PM 30.2 °F 26.7 °F 21.2 °F 69% 29.92 in - WNW 3.5 mph - N/A   Clear
3:00 PM - - - N/A% - - WNW 9.2 mph - N/A   Unknown
3:15 PM 30.2 °F 24.3 °F 21.2 °F 69% 29.92 in 6.2 mi NW 5.8 mph - N/A   Mostly Cloudy
3:45 PM 30.2 °F 23.4 °F 23.0 °F 75% 29.92 in 6.2 mi NW 6.9 mph - N/A   Mostly Cloudy
4:15 PM 30.2 °F 22.6 °F 23.0 °F 75% 29.92 in 6.2 mi NW 8.1 mph - N/A   Mostly Cloudy
4:45 PM 30.2 °F 23.4 °F 23.0 °F 75% 29.92 in 6.2 mi NW 6.9 mph - N/A   Mostly Cloudy
5:15 PM 30.2 °F 23.4 °F 24.8 °F 80% 29.95 in - West 6.9 mph - N/A   Clear
5:45 PM 30.2 °F 22.6 °F 24.8 °F 80% 29.95 in - WNW 8.1 mph - N/A   Clear
6:15 PM 30.2 °F 22.6 °F 24.8 °F 80% 29.95 in - NW 8.1 mph - N/A   Clear
6:45 PM 30.2 °F 22.6 °F 24.8 °F 80% 29.98 in - NW 8.1 mph - N/A   Clear
7:00 PM 31 °F - 25 °F 71% 30.00 in 6 mi NW 8.9 mph - -   Partly Cloudy
7:15 PM 30.2 °F 20.8 °F 24.8 °F 80% 29.98 in - NNW 11.5 mph - N/A   Clear
7:31 PM - - - N/A% - - North - - N/A   Clear
7:45 PM 30.2 °F 18.5 °F 24.8 °F 80% 29.98 in - NNW 17.3 mph - N/A   Clear
8:15 PM 30.2 °F 19.3 °F 24.8 °F 80% 29.98 in - NNW 15.0 mph - N/A   Clear
8:45 PM 28.4 °F 18.5 °F 24.8 °F 86% 30.01 in 4.3 mi NNW 11.5 mph 23.0 mph N/A Snow Light Snow
9:20 PM 28.4 °F 17.0 °F 23.0 °F 80% 30.06 in 4.3 mi NNW 15.0 mph 27.6 mph N/A Snow Light Snow
9:21 PM 28.4 °F 17.5 °F 23.0 °F 80% 30.01 in - NNW 13.8 mph 27.6 mph N/A   Unknown
9:45 PM 28.4 °F 17.5 °F 23.0 °F 80% 30.01 in 6.2 mi NNW 13.8 mph - N/A Snow Light Snow
10:45 PM 28.4 °F 17.5 °F 21.2 °F 74% 30.01 in - NNW 13.8 mph - N/A   Clear
10:46 PM - - - N/A% - - North - - N/A   Unknown
11:45 PM 26.6 °F 13.8 °F 19.4 °F 74% 30.04 in - NNW 17.3 mph - N/A   Clear